Regional Weather Roundup
Issued by NWS Columbia, SC

Home | Current Version | Previous Version | Text Only | Print | Product List | Glossary On
Versions: 1 2 3 4 5 6 7 8 9 10 11 12 13 14 15 16 17 18 19 20 21 22 23 24 25 26 27 28 29 30 31 32 33 34 35 36 37 38 39 40 41 42 43 44 45 46 47 48 49 50
000
ASUS42 KCAE 282110
RWRCAE
REGIONAL WEATHER ROUNDUP
NATIONAL WEATHER SERVICE COLUMBIA SC
400 PM EST SAT FEB 28 2015

NOTE: "FAIR" INDICATES FEW OR NO CLOUDS BELOW 12,000 FEET WITH NO
SIGNIFICANT WEATHER AND/OR OBSTRUCTIONS TO VISIBILITY.

NOT ALL STATIONS ARE QUALITY CONTROLLED BY THE NATIONAL
WEATHER SERVICE. USE DATA WITH CAUTION...ESPECIALLY
DEWPOINT OBSERVATIONS.

SCZ001>056-GAZ040-063>065-077-282200-
...UPSTATE SOUTH CAROLINA...

CITY           SKY/WX    TMP DP  RH WIND       PRES   REMARKS
ANDERSON       SUNNY     47  23  38 E10       30.56F
LIBERTY        CLEAR     47  21  35 MISG      30.55F
SPARTANBURG    MOSUNNY   46  21  36 NE10      30.59F
CLEMSON        SUNNY     48  19  31 E7        30.57F
GREENVILLE     FAIR      45  21  38 NE10      30.59S
GREENWOOD      MOSUNNY   49  25  39 NE8       30.58F
GREER          MOSUNNY   44  22  41 NE8       30.57F
ROCK HILL      MOSUNNY   45  22  40 VRB6      30.61F
CHESTER        PTCLDY    46  23  39 E7        30.61F
LAURENS        PTCLDY    45  32  61 NE9       30.58S


...CENTRAL SOUTH CAROLINA...

CITY           SKY/WX    TMP DP  RH WIND       PRES   REMARKS
COLUMBIA APT   PTSUNNY   52  26  36 NE9G17    30.58F
COLUMBIA OWENS MOSUNNY   51  24  34 NE8       30.59F
DARLINGTON     SUNNY     48  27  43 E14       30.63F
FLORENCE       SUNNY     50  25  37 NE17      30.61F
MCENTIRE ANGB  PTSUNNY   54  26  33 NE9       30.58F
ORANGEBURG     PTSUNNY   52  26  36 E14G20    30.57S
SUMTER SHAW    PTSUNNY   50  26  38 E13       30.58S
NEWBERRY       MOCLDY    46  27  46 NE9G16    30.61S
AIKEN          FAIR      52  30  43 NE13G21   30.58F
BARNWELL       CLOUDY    54  32  43 E12       30.56S
MANNING        MOCLDY    54  14  20 N7        30.58S
CAMDEN         FAIR      50  23  34 NE12G18   30.60F
LANCASTER      PTCLDY    45  23  42 E12G18    30.61F
WINNSBORO      PTCLDY    46  28  49 NE8       30.59S


...EASTERN AND COASTAL SOUTH CAROLINA...

CITY           SKY/WX    TMP DP  RH WIND       PRES   REMARKS
MYRTLE BEACH   CLOUDY    52  27  37 NE15      30.61F
N MYRTLE BCH   CLOUDY    50  25  37 NE10      30.60R
CONWAY         CLOUDY    50  30  46 N12       30.60F
MARION         FAIR      46  25  42 NE13      30.63F
HARTSVILLE     FAIR      48  21  34 E10G16    30.61F
FLORENCE       SUNNY     50  25  37 NE17      30.61F
DARLINGTON     SUNNY     48  27  43 E14       30.63F
CHARLESTON APT LGT RAIN  51  30  44 NE9       30.56S
MOUNT PLEASANT DRIZZLE   48  30  49 CALM      30.56F
WALTERBORO     CLOUDY    52  32  46 NE9G20    30.55F
BEAUFORT       CLOUDY    46  39  76 NE8       30.55R


...EASTERN GEORGIA...

CITY           SKY/WX    TMP DP  RH WIND       PRES   REMARKS
AUGUSTA BUSH F MOSUNNY   52  28  39 NE13      30.55S
AUGUSTA DANIEL SUNNY     53  28  38 E10G18    30.54F
THOMSON        MOSUNNY   54  35  49 E8        30.58F
WASHINGTON     FAIR      54  36  50 NE6       30.54S
CLAXTON        LGT RAIN  43  41  93 NE8       30.53F
SYLVANIA       RAIN      47  41  78 SE3       30.55R
STATESBORO     RAIN      44  44 100 E5        30.54S
SAVANNAH       CLOUDY    44  38  79 NE14      30.54R HAZE


...SOUTHERN NORTH CAROLINA...

CITY           SKY/WX    TMP DP  RH WIND       PRES   REMARKS
CHARLOTTE      CLOUDY    43  18  36 E8G18     30.63F
MONROE         SUNNY     45  23  42 NE12      30.61F
WADESBORO      CLEAR     47  19  32 NE9       30.64F
ROCKINGHAM       N/A     46  22  38 NE8       30.63F
RUTHERFORDTON  PTSUNNY   43  20  41 E6        30.60F
ASHEVILLE      PTSUNNY   38  18  44 S8        30.53F WCI  32

$$


USA.gov is the U.S. government's official web portal to all federal, state and local government web resources and services.